Clarinda, IA

5:07 AM CDT on July 28, 2017 (GMT -0500)
Schenck

Weather History for KICL - August, 2014

Change the Weather History Date:

Wednesday, August 13, 2014

  Actual Average Record
Temperature  
Mean Temperature 64 °F -  
Max Temperature 80 °F 82 °F 91 °F (2007)
Min Temperature 48 °F 61 °F 48 °F (2014)
Degree Days  
Heating Degree Days 1    
Growing Degree Days 14 (Base 50)    
Moisture  
Dew Point 55 °F    
Average Humidity 75    
Maximum Humidity 100    
Minimum Humidity 42    
Precipitation  
Precipitation 0.00 in - - ()
Sea Level Pressure  
Sea Level Pressure 30.14 in    
Wind  
Wind Speed 1 mph (SSW)    
Max Wind Speed 7 mph    
Max Gust Speed -    
Visibility 8 miles    
Events Fog    
Averages and records for this station are not official NWS values.
T = Trace of Precipitation, MM = Missing Value Source: NWS Daily Summary

Daily Weather History Graph

Daily Weather History Graph

Search for Another Location

Airport or City:

Trip Planner

Search our weather history database for the weather conditions in past years. The results will help you decide how hot, cold, wet, or windy it might be!

Date:

Astronomy

Aug. 13, 2014 Rise Set
Actual Time 6:28 AM CDT 8:20 PM CDT
Civil Twilight 5:58 AM CDT 8:50 PM CDT
Nautical Twilight 5:22 AM CDT 9:26 PM CDT
Astronomical Twilight 4:44 AM CDT 10:04 PM CDT
Moon 10:04 PM CDT (8/13) 9:59 AM CDT (8/13)
Length of Visible Light 14h 51m
Length of Day
13h 52m
Waning Gibbous, 87% of the Moon is Illuminated
Aug 13
Waning Gibbous
Aug 17
Last Quarter
Aug 25
New
Sep 2
First Quarter
Sep 8
Full

Hourly Weather History & Observations

Time (CDT) Temp. Heat Index Dew Point Humidity Pressure Visibility Wind Dir Wind Speed Gust Speed Precip Events Conditions
12:15 AM 53.6 °F - 53.6 °F 100% 30.12 in 0.5 mi Calm Calm - N/A Fog Fog
12:35 AM 53.6 °F - 53.6 °F 100% 30.12 in 6.0 mi Calm Calm - N/A   Clear
12:55 AM 51.8 °F - 51.8 °F 100% 30.12 in 10.0 mi Calm Calm - N/A   Clear
1:15 AM 51.8 °F - 51.8 °F 100% 30.13 in 10.0 mi Calm Calm - N/A   Clear
1:35 AM 51.8 °F - 51.8 °F 100% 30.13 in 10.0 mi Calm Calm - N/A   Clear
1:55 AM 51.8 °F - 51.8 °F 100% 30.13 in 7.0 mi Calm Calm - N/A   Clear
2:15 AM 51.8 °F - 51.8 °F 100% 30.13 in 10.0 mi Calm Calm - N/A   Clear
2:35 AM 50.0 °F - 50.0 °F 100% 30.13 in 7.0 mi Calm Calm - N/A   Clear
2:55 AM 50.0 °F - 50.0 °F 100% 30.14 in 9.0 mi Calm Calm - N/A   Clear
3:15 AM 50.0 °F - 50.0 °F 100% 30.15 in 0.5 mi Calm Calm - N/A Fog Fog
3:35 AM 50.0 °F - 50.0 °F 100% 30.15 in 0.5 mi Calm Calm - N/A Fog Fog
3:55 AM 50.0 °F - 50.0 °F 100% 30.15 in 10.0 mi Calm Calm - N/A   Clear
4:15 AM 50.0 °F - 50.0 °F 100% 30.15 in 0.5 mi Calm Calm - N/A Fog Fog
4:35 AM 50.0 °F - 50.0 °F 100% 30.15 in 0.8 mi Calm Calm - N/A   Mist
4:55 AM 50.0 °F - 50.0 °F 100% 30.16 in 0.2 mi Calm Calm - N/A Fog Fog
5:15 AM 50.0 °F - 50.0 °F 100% 30.16 in 0.8 mi Calm Calm - N/A   Mist
5:35 AM 50.0 °F - 50.0 °F 100% 30.15 in 0.5 mi Calm Calm - N/A Fog Fog
5:55 AM 50.0 °F - 50.0 °F 100% 30.16 in 0.2 mi Calm Calm - N/A Fog Fog
6:15 AM 48.2 °F - 48.2 °F 100% 30.16 in 0.5 mi Calm Calm - N/A   Mostly Cloudy
6:35 AM 48.2 °F - 48.2 °F 100% 30.17 in 0.5 mi Calm Calm - N/A   Mostly Cloudy
6:55 AM 48.2 °F - 48.2 °F 100% 30.17 in 0.2 mi Calm Calm - N/A Fog Fog
7:35 AM 53.6 °F - 53.6 °F 100% 30.17 in 0.2 mi Calm Calm - N/A Fog Fog
7:55 AM 55.4 °F - 55.4 °F 100% 30.18 in 10.0 mi Calm Calm - N/A   Clear
8:15 AM 57.2 °F - 57.2 °F 100% 30.18 in 10.0 mi Calm Calm - N/A   Clear
8:35 AM 59.0 °F - 59.0 °F 100% 30.18 in 9.0 mi Calm Calm - N/A   Clear
8:55 AM 60.8 °F - 59.0 °F 94% 30.19 in 10.0 mi Calm Calm - N/A   Clear
9:35 AM 68.0 °F - 62.6 °F 83% 30.18 in 10.0 mi Calm Calm - N/A   Clear
10:15 AM 71.6 °F - 57.2 °F 60% 30.18 in 10.0 mi Calm Calm - N/A   Clear
10:35 AM 73.4 °F - 57.2 °F 57% 30.18 in 10.0 mi Calm Calm - N/A   Clear
10:55 AM 75.2 °F - 57.2 °F 53% 30.18 in 10.0 mi Variable 4.6 mph - N/A   Clear
11:15 AM 75.2 °F - 55.4 °F 50% 30.18 in 10.0 mi West 5.8 mph - N/A   Clear
11:35 AM 75.2 °F - 57.2 °F 53% 30.18 in 10.0 mi NW 4.6 mph - N/A   Clear
11:55 AM 75.2 °F - 55.4 °F 50% 30.18 in 10.0 mi Calm Calm - N/A   Clear
12:15 PM 77.0 °F - 57.2 °F 50% 30.17 in 10.0 mi Calm Calm - N/A   Clear
12:35 PM 77.0 °F - 57.2 °F 50% 30.17 in 10.0 mi Variable 4.6 mph - N/A   Clear
12:55 PM 78.8 °F - 57.2 °F 47% 30.16 in 10.0 mi Calm Calm - N/A   Clear
1:15 PM 77.0 °F - 55.4 °F 47% 30.15 in 10.0 mi Calm Calm - N/A   Clear
1:35 PM 78.8 °F - 57.2 °F 47% 30.15 in 10.0 mi Variable 3.5 mph - N/A   Clear
1:55 PM 78.8 °F - 57.2 °F 47% 30.15 in 8.0 mi Calm Calm - N/A   Clear
2:15 PM 78.8 °F - 57.2 °F 47% 30.14 in 10.0 mi SSW 5.8 mph - N/A   Clear
2:35 PM 78.8 °F - 57.2 °F 47% 30.14 in 10.0 mi Variable 4.6 mph - N/A   Clear
2:55 PM 78.8 °F - 57.2 °F 47% 30.14 in 10.0 mi Variable 4.6 mph - N/A   Clear
3:15 PM 80.6 °F 80.8 °F 57.2 °F 45% 30.13 in 10.0 mi South 5.8 mph - N/A   Clear
3:35 PM 80.6 °F 80.5 °F 55.4 °F 42% 30.12 in 10.0 mi SW 5.8 mph - N/A   Clear
3:55 PM 80.6 °F 80.8 °F 57.2 °F 45% 30.12 in 10.0 mi South 5.8 mph - N/A   Clear
4:15 PM 80.6 °F 81.1 °F 59.0 °F 48% 30.11 in 10.0 mi South 6.9 mph - N/A   Clear
4:35 PM 80.6 °F 81.1 °F 59.0 °F 48% 30.11 in 10.0 mi SSE 5.8 mph - N/A   Clear
4:55 PM 80.6 °F 81.1 °F 59.0 °F 48% 30.10 in 10.0 mi South 4.6 mph - N/A   Clear
5:15 PM 80.6 °F 81.1 °F 59.0 °F 48% 30.10 in 10.0 mi Variable 3.5 mph - N/A   Clear
5:35 PM 80.6 °F 81.1 °F 59.0 °F 48% 30.10 in 10.0 mi SSE 4.6 mph - N/A   Clear
5:55 PM 80.6 °F 80.8 °F 57.2 °F 45% 30.09 in 10.0 mi Calm Calm - N/A   Clear
6:15 PM 78.8 °F - 57.2 °F 47% 30.10 in 10.0 mi South 4.6 mph - N/A   Clear
6:35 PM 78.8 °F - 57.2 °F 47% 30.09 in 10.0 mi Calm Calm - N/A   Clear
6:55 PM 78.8 °F - 59.0 °F 51% 30.09 in 10.0 mi Calm Calm - N/A   Clear
7:15 PM 78.8 °F - 62.6 °F 57% 30.09 in 10.0 mi Calm Calm - N/A   Clear
7:55 PM 73.4 °F - 66.2 °F 78% 30.09 in 10.0 mi South 3.5 mph - N/A   Clear
8:35 PM 68.0 °F - 64.4 °F 88% 30.09 in 10.0 mi Calm Calm - N/A   Clear
11:15 PM 60.8 °F - 60.8 °F 100% 30.12 in 10.0 mi Calm Calm - N/A   Clear
11:35 PM 59.0 °F - 59.0 °F 100% 30.12 in 10.0 mi Calm Calm - N/A   Clear
11:55 PM 59.0 °F - 57.2 °F 94% 30.12 in 10.0 mi Calm Calm - N/A   Clear